Location: Newark
(33.6439°N, 114.9881°W)
Time: 20:17:16
(UTC+00:00)

Tiros 1 - Pass Details

Date: 25 July 2019
Orbit: 630 x 664 km, 48.4° (Epoch: 18 August)

Event Time Altitude Azimuth Distance (km) Brightness Sun altitude
Rises 15:39:40 0° 179° (S) 2,947 10.5 33.9°
Reaches altitude 10° 15:43:34 10° 147° (SSE) 2,051 10.2 34.7°
Maximum altitude 15:45:10 12° 127° (SE) 1,950 10.5 35.0°
Drops below altitude 10° 15:46:47 10° 107° (ESE) 2,061 11.0 35.4°
Sets 15:50:43 0° 75° (ENE) 2,985 11.5 36.2°
